sat.trackr.live / text

‹ back to catalog

KUIPER-00181

NORAD 67137 · 2025-301E

PAYLOAD ACTIVE UNKNOWN

§ Identity

Operator
Country
US
Launch date
2025-12-16
Launch site
AFETR
Launch vehicle
Mass (kg)
RCS (m²)

External: N2YO · Heavens-Above · Gunter

§ Orbital elements

Epoch: 2026-09-20T08:49:39.657504Z

Period
97.30 min
Inclination
51.9015°
Eccentricity
0.0000540
Mean motion
14.79929119 rev/d
Perigee alt
629.2 km
Apogee alt
629.9 km
Semi-major
7,007.7 km
B*
1.1834e-4
RAAN
297.2770°
Arg perigee
79.2904°
Mean anomaly
280.8120°
Rev number
4,254

§ Raw data

KUIPER-001811 67137U 25301E   26263.36782011  .00000681  00000+0  11834-3 0  99962 67137  51.9015 297.2770 0000540  79.2904 280.8120 14.79929119 42549

JSON: /api/v1/satellites/67137 · /tle

For live sub-satellite position, see the globe view (requires WebGL).

§ Visibility from observer

Set your observer location to see the next 7 days of passes ≥ 10°. The values pass through the URL so the page stays shareable.

No JS? Fill the form by hand. The geolocation button needs JavaScript.